[[{"header":{"parameterUnit":"m.s-1","parameterCategory":1,"la1":30.2991,"la2":30.254,"lo1":-89.0895,"lo2":-89.0444,"dy":0.0017,"dx":0.0017,"nx":28,"ny":28,"refTime":"2024-02-20T03:00:00:Z","depth":0,"parameterNumber":2,"parameterNumberName":"U-component_of_WINDS"},"data":[0,0,0,0,0,0,0,0,0,0,0,0,0,0,0,0,0,0,0,0,0,0,0,0,0,0,0,0,0,0,0,0,0,0,0,0,0,0,0,0,0,0,0,0,0,0,0,0,0,0,0,0,0,0,0,0,0,0,-0.2987,-0.2987,0,-0.3045,-0.3046,-0.3047,-0.3085,-0.3085,-0.3085,-0.3085,-0.3147,-0.3149,-0.315,0,0,0,0,0,0,0,0,0,0,0,0,0,-0.291,-0.2911,-0.2987,-0.2987,-0.2988,-0.3045,-0.3046,-0.3047,-0.3085,-0.3085,-0.3085,-0.3086,-0.3147,-0.3148,-0.315,0,0,0,0,0,0,0,0,0,0,0,0,0,-0.2953,-0.2911,-0.2986,-0.3014,-0.3017,-0.3045,-0.3046,-0.3047,-0.3085,-0.3085,-0.3085,-0.3086,-0.3146,-0.3148,-0.315,-0.3157,0,0,-0.3157,-0.3158,0,0,0,0,0,0,0,0,-0.2951,-0.2956,-0.3009,-0.3012,-0.3015,-0.3058,-0.3042,-0.3084,-0.3085,-0.3059,-0.3085,-0.3086,-0.3117,-0.3122,-0.3132,-0.3159,-0.3162,-0.3157,-0.3158,-0.3159,-0.316,0,0,0,0,0,0,0,-0.2948,-0.2954,-0.301,-0.301,-0.3014,-0.3024,-0.3031,-0.305,-0.3086,-0.3061,-0.3064,-0.307,-0.3119,-0.313,-0.3134,-0.3163,-0.3157,-0.3159,-0.316,-0.3161,-0.32,-0.32,0,0,0,0,0,0,-0.294,-0.2951,-0.3008,-0.3012,-0.2983,-0.3025,-0.3032,-0.3044,-0.3085,-0.3092,-0.307,-0.3072,-0.3126,-0.3131,-0.3136,-0.3147,-0.3159,-0.3161,-0.3162,-0.32,-0.32,-0.32,0,0,0,0,0,0,-0.2938,-0.2945,-0.3006,-0.2982,-0.2991,-0.3026,-0.3039,-0.3045,-0.3056,-0.3092,-0.3099,-0.3074,-0.3127,-0.3133,-0.3151,-0.315,-0.3162,-0.3164,-0.32,-0.32,-0.32,-0.3168,0,0,0,0,0,0,-0.2936,-0.2944,-0.2946,-0.2982,-0.2992,-0.3019,-0.3039,-0.3046,-0.3059,-0.3062,-0.3098,-0.3104,-0.3127,-0.3148,-0.3154,-0.3153,-0.3166,-0.3201,-0.32,-0.32,-0.317,-0.3167,-0.3165,0,0,0,0,0,-0.2933,-0.2935,-0.2946,-0.2953,-0.2995,-0.3019,-0.3025,-0.3051,-0.3059,-0.3062,-0.3085,-0.3103,-0.3149,-0.315,-0.3156,-0.3156,-0.3201,-0.32,-0.32,-0.3171,-0.3167,-0.3165,0,0,0,0,0,0,-0.2898,-0.294,-0.2953,-0.2966,-0.2989,-0.3025,-0.303,-0.3046,-0.3067,-0.3069,-0.3102,-0.3109,-0.3125,-0.3142,-0.3142,-0.3165,-0.3177,-0.3178,-0.3153,-0.315,-0.3147,-0.3143,-0.3168,0,0,0,0,0,-0.2892,-0.2907,-0.2943,-0.2952,-0.2962,-0.2994,-0.3005,-0.3024,-0.3048,-0.3058,-0.3083,-0.3107,-0.3127,-0.3139,-0.316,-0.3172,-0.3181,-0.3176,-0.3173,-0.3171,-0.3171,-0.3181,-0.3179,-0.3198,-0.3198,-0.3198,0,0,-0.288,-0.2904,-0.2912,-0.2945,-0.2965,-0.2981,-0.3002,-0.3017,-0.303,-0.3061,-0.308,-0.3099,-0.3128,-0.3143,-0.3152,-0.3159,-0.3168,-0.317,-0.3168,-0.317,-0.318,-0.3178,-0.3176,-0.3197,-0.3197,-0.3198,0,0,-0.2865,-0.2885,-0.2894,-0.2914,-0.2943,-0.2964,-0.2966,-0.3001,-0.3015,-0.3034,-0.3058,-0.3074,-0.3107,-0.3127,-0.3141,-0.3136,-0.3153,-0.3141,-0.3128,-0.3137,-0.3135,-0.3134,-0.3133,-0.3132,-0.3141,-0.3141,-0.3141,0,-0.2846,-0.287,-0.2897,-0.2912,-0.2926,-0.2955,-0.2966,-0.2983,-0.3018,-0.3028,-0.3035,-0.3078,-0.31,-0.3121,-0.312,-0.313,-0.3135,-0.3137,-0.3133,-0.3132,-0.3131,-0.3131,-0.313,-0.314,-0.314,-0.314,-0.314,0,-0.2846,-0.2862,-0.2867,-0.2899,-0.2914,-0.2926,-0.2957,-0.2969,-0.2986,-0.3006,-0.3026,-0.3053,-0.308,-0.3087,-0.3103,-0.3111,-0.3114,-0.3127,-0.314,-0.3128,-0.3127,-0.3127,-0.3138,-0.3138,-0.3139,-0.3139,0,0,-0.2811,-0.2858,-0.286,-0.2875,-0.291,-0.2924,-0.2938,-0.2964,-0.2974,-0.2997,-0.301,-0.3039,-0.3051,-0.3067,-0.3087,-0.3094,-0.3089,-0.3106,-0.3107,-0.3103,-0.3099,-0.309,-0.3089,-0.3101,-0.3101,-0.3101,-0.3097,0,-0.2802,-0.2828,-0.2854,-0.2871,-0.2887,-0.2915,-0.2928,-0.2951,-0.2971,-0.2988,-0.3011,-0.303,-0.3045,-0.3055,-0.3063,-0.3088,-0.3089,-0.3088,-0.3114,-0.3115,-0.3106,-0.3089,-0.3079,-0.3074,-0.3097,-0.3097,-0.3097,0,-0.2795,-0.2817,-0.2836,-0.287,-0.2878,-0.2888,-0.2914,-0.293,-0.2958,-0.2972,-0.299,-0.3011,-0.3029,-0.304,-0.3065,-0.3064,-0.3076,-0.309,-0.309,-0.3094,-0.3105,-0.3092,-0.3073,-0.3072,-0.3097,-0.3097,-0.3097,0,-0.2769,-0.2802,-0.2818,-0.2831,-0.2871,-0.2878,-0.2895,-0.2923,-0.2937,-0.296,-0.297,-0.2995,-0.3008,-0.3028,-0.3055,-0.306,-0.3078,-0.3091,-0.3091,-0.309,-0.3093,-0.3093,-0.3076,-0.31,-0.31,-0.31,-0.31,0,-0.2756,-0.2767,-0.2807,-0.2817,-0.283,-0.286,-0.2872,-0.2892,-0.2917,-0.2932,-0.2957,-0.2971,-0.3006,-0.3024,-0.3046,-0.3064,-0.307,-0.3083,-0.3088,-0.308,-0.3079,-0.3089,-0.309,-0.31,-0.31,-0.31,-0.31,0,-0.2729,-0.2756,-0.2775,-0.2812,-0.2821,-0.2829,-0.2861,-0.2872,-0.2894,-0.2912,-0.2918,-0.2952,-0.2975,-0.3004,-0.3037,-0.3051,-0.3067,-0.3075,-0.3057,-0.3061,-0.3059,-0.3059,-0.3049,-0.3049,-0.3073,-0.3072,-0.3072,0,-0.272,-0.2728,-0.2766,-0.2777,-0.2793,-0.2812,-0.2826,-0.2856,-0.287,-0.2903,-0.291,-0.2935,-0.2956,-0.2991,-0.302,-0.3045,-0.3054,-0.3049,-0.3058,-0.305,-0.3055,-0.3054,-0.3055,-0.3046,-0.3046,-0.3046,-0.3045,0,-0.27,-0.2713,-0.2733,-0.2757,-0.2774,-0.2795,-0.2817,-0.2825,-0.286,-0.2875,-0.2898,-0.2915,-0.2947,-0.2972,-0.3001,-0.3019,-0.3039,-0.3042,-0.3044,-0.3036,-0.3025,-0.3032,-0.3051,-0.3042,-0.3043,-0.3043,-0.3043,-0.3043,-0.2682,-0.2692,-0.2719,-0.2741,-0.276,-0.278,-0.2793,-0.2816,-0.2836,-0.2864,-0.2881,-0.2904,-0.2932,-0.2973,-0.2991,-0.301,-0.3017,-0.3019,-0.302,-0.302,-0.3017,-0.3022,-0.3015,-0.3015,-0.3016,-0.3016,-0.3016,0,-0.2665,-0.2684,-0.2703,-0.2733,-0.275,-0.2766,-0.2791,-0.2805,-0.2824,-0.2849,-0.2869,-0.2897,-0.2921,-0.2951,-0.2977,-0.2987,-0.2996,-0.2993,-0.2993,-0.2997,-0.3009,-0.3006,-0.2985,-0.2985,-0.2985,-0.2985,-0.2985,-0.2985,-0.2658,-0.2675,-0.2691,-0.2719,-0.2738,-0.276,-0.2774,-0.2793,-0.2813,-0.2842,-0.2862,-0.2881,-0.2908,-0.2937,-0.296,-0.2968,-0.2977,-0.2971,-0.2982,-0.2993,-0.2996,-0.2998,-0.2995,-0.2972,-0.2972,-0.2968,-0.2968,-0.2968]},{"header":{"parameterUnit":"m.s-1","parameterCategory":1,"la1":30.2991,"la2":30.254,"lo1":-89.0895,"lo2":-89.0444,"dy":0.0017,"dx":0.0017,"nx":28,"ny":28,"refTime":"2024-02-20T03:00:00:Z","depth":0,"parameterNumber":3,"parameterNumberName":"V-component_of_WINDS"},"data":[0,0,0,0,0,0,0,0,0,0,0,0,0,0,0,0,0,0,0,0,0,0,0,0,0,0,0,0,0,0,0,0,0,0,0,0,0,0,0,0,0,0,0,0,0,0,0,0,0,0,0,0,0,0,0,0,0,0,3.86,3.8601,0,3.8704,3.8705,3.8706,3.8707,3.8706,3.8705,3.8703,3.8802,3.8805,3.8809,0,0,0,0,0,0,0,0,0,0,0,0,0,3.8395,3.8399,3.86,3.8601,3.8603,3.8704,3.8705,3.8706,3.8707,3.8706,3.8704,3.8703,3.88,3.8805,3.881,0,0,0,0,0,0,0,0,0,0,0,0,0,3.849,3.84,3.86,3.8615,3.8618,3.8703,3.8705,3.8707,3.8708,3.8706,3.8704,3.8702,3.8799,3.8805,3.881,3.8885,0,0,3.8828,3.883,0,0,0,0,0,0,0,0,3.8485,3.8497,3.8612,3.8614,3.8617,3.8691,3.8669,3.8766,3.8708,3.8673,3.8703,3.8701,3.8766,3.8774,3.8798,3.8889,3.8893,3.8828,3.8832,3.8834,3.8836,0,0,0,0,0,0,0,3.8478,3.8493,3.8641,3.8613,3.8617,3.8615,3.8626,3.8687,3.8729,3.8676,3.8677,3.8689,3.8767,3.8792,3.88,3.8895,3.8828,3.8833,3.8837,3.8839,3.9054,3.9056,0,0,0,0,0,0,3.8469,3.8487,3.8637,3.8644,3.8545,3.862,3.8633,3.8669,3.8728,3.8736,3.8691,3.8689,3.8783,3.8793,3.8803,3.8896,3.8834,3.884,3.8843,3.9051,3.9054,3.9057,0,0,0,0,0,0,3.8465,3.8483,3.8633,3.8566,3.8585,3.8626,3.8666,3.8672,3.8697,3.874,3.8746,3.871,3.8782,3.8795,3.8865,3.8899,3.8842,3.8847,3.9049,3.9052,3.9055,3.908,0,0,0,0,0,0,3.8459,3.8481,3.8511,3.8567,3.8589,3.8696,3.8668,3.8675,3.8708,3.8707,3.8759,3.8765,3.8782,3.8857,3.8871,3.8906,3.8852,3.9046,3.905,3.9054,3.9076,3.9084,3.909,0,0,0,0,0,3.8452,3.8512,3.8513,3.8531,3.8628,3.8698,3.871,3.873,3.8711,3.8741,3.8768,3.8764,3.8893,3.8864,3.888,3.8917,3.9044,3.9049,3.9054,3.9073,3.9082,3.909,0,0,0,0,0,0,3.8456,3.852,3.8521,3.8602,3.8645,3.8698,3.8736,3.8738,3.8785,3.8781,3.8801,3.8813,3.8883,3.8907,3.8873,3.8993,3.8966,3.8974,3.8975,3.8984,3.8991,3.8984,3.8857,0,0,0,0,0,3.8468,3.8522,3.8572,3.8638,3.866,3.8695,3.8725,3.8737,3.8781,3.8799,3.8831,3.8872,3.8922,3.8954,3.9002,3.908,3.9091,3.9113,3.912,3.9125,3.9133,3.9176,3.9187,3.9073,3.9073,3.9073,0,0,3.8489,3.8531,3.8563,3.8641,3.8675,3.8729,3.871,3.8766,3.8806,3.8806,3.8876,3.8901,3.8947,3.9022,3.9056,3.9044,3.9167,3.9132,3.9136,3.914,3.9183,3.9194,3.9203,3.9077,3.9076,3.9075,0,0,3.8558,3.8594,3.8655,3.869,3.8744,3.8767,3.8781,3.8835,3.8852,3.8923,3.8925,3.897,3.9055,3.9089,3.9118,3.92,3.9198,3.9215,3.9251,3.9294,3.9303,3.9311,3.9341,3.9352,3.9222,3.9222,3.9222,0,3.8578,3.8662,3.8684,3.8743,3.8777,3.8783,3.8843,3.8875,3.8941,3.8963,3.8949,3.9058,3.9089,3.9172,3.9193,3.9215,3.9231,3.9209,3.93,3.9308,3.9316,3.9345,3.9357,3.9224,3.9224,3.9223,3.9223,0,3.8684,3.8742,3.8783,3.885,3.8889,3.8947,3.8977,3.9013,3.9021,3.9045,3.9116,3.9155,3.9212,3.9232,3.9239,3.9316,3.9307,3.9296,3.927,3.9329,3.9356,3.9368,3.9226,3.9226,3.9225,3.9225,0,0,3.8757,3.8838,3.8853,3.8885,3.8945,3.8989,3.9047,3.9106,3.9136,3.9181,3.923,3.9303,3.9294,3.9326,3.9337,3.9375,3.9439,3.9359,3.9361,3.9374,3.9527,3.9536,3.9549,3.9438,3.944,3.9442,3.9524,0,3.8833,3.8941,3.8964,3.9056,3.911,3.9116,3.9167,3.9209,3.9232,3.9279,3.9304,3.9356,3.934,3.9359,3.9397,3.9423,3.947,3.9418,3.9483,3.9485,3.9472,3.9563,3.9572,3.9648,3.9535,3.9536,3.9538,0,3.8936,3.8987,3.9086,3.9141,3.9165,3.921,3.9267,3.9312,3.9359,3.9373,3.941,3.9418,3.9477,3.9448,3.9529,3.9493,3.9521,3.9538,3.9542,3.9549,3.9516,3.9574,3.9672,3.9684,3.9555,3.9554,3.9552,0,3.8981,3.9075,3.9147,3.9173,3.9238,3.9271,3.9299,3.9344,3.9378,3.9426,3.9449,3.9501,3.953,3.9571,3.9592,3.9568,3.9672,3.9644,3.9685,3.9685,3.9707,3.9706,3.9813,3.9723,3.9723,3.9723,3.9723,0,3.9064,3.9124,3.9168,3.9212,3.928,3.9304,3.937,3.9397,3.9438,3.9486,3.9493,3.9537,3.9562,3.961,3.9626,3.9692,3.9705,3.9717,3.9721,3.9717,3.9716,3.9736,3.9732,3.9726,3.9725,3.9725,3.9724,0,3.9126,3.9158,3.9237,3.9294,3.931,3.9357,3.9405,3.9447,3.9471,3.9532,3.9547,3.9584,3.9641,3.9666,3.9734,3.9745,3.9821,3.982,3.9806,3.9808,3.9848,3.9844,3.9972,3.9991,3.9889,3.9889,3.989,0,3.9178,3.9225,3.9288,3.9323,3.9353,3.9408,3.9444,3.9469,3.9506,3.9564,3.9599,3.9656,3.9704,3.9794,3.9825,3.9878,3.9879,3.992,3.9887,3.9882,3.9881,3.9878,3.9883,3.9926,3.9927,3.9928,3.9929,0,3.9265,3.928,3.9333,3.9393,3.9436,3.9483,3.9529,3.9556,3.9588,3.9629,3.9689,3.9726,3.9798,3.9855,3.991,3.9936,3.9938,3.9939,3.9952,3.9949,3.994,3.9946,3.9824,3.9936,3.9936,3.9935,3.9935,3.9934,3.9325,3.9368,3.942,3.9479,3.9517,3.956,3.9604,3.9634,3.9686,3.9749,3.9759,3.9823,3.9869,3.9944,3.9972,4.0021,4.0011,4.0029,4.0033,4.0038,4.0041,3.9931,4.0031,4.0031,4.0031,4.0031,4.003,0,3.9414,3.9449,3.9503,3.9569,3.9616,3.9616,3.9667,3.9705,3.9762,3.9806,3.9854,3.9923,3.9978,4.0015,4.0071,4.0103,4.0105,4.0117,4.0115,4.0121,4.0046,4.0031,4.0114,4.0114,4.0114,4.0114,4.0114,4.0114,3.9466,3.954,3.956,3.9652,3.9685,3.975,3.978,3.9819,3.9855,3.9933,3.998,4.0005,4.0045,4.0105,4.0155,4.0164,4.0185,4.0197,4.0206,4.0135,4.0126,4.0118,4.0104,4.0201,4.0201,4.0277,4.0278,4.0278]}]]